GFSGBSN_prec_precacc_048.txt.gz
Total_Precipitation_Accumulation
0.04 0.04 0.03 0.02 0.02 0.02 0.01 0.02 0.02 0.01 0.02 0.02 0.03 0.02 0.03 0.02 0.03 0.02 0.02 0.02 0.02 0.02 0.02 0.02 0.02 0.02 0.01 0.00 0.00 0.00 0.00 0.00 0.00 0.00 0.00 0.00 0.00 0.00 0.00 0.00 0.00 0.00 0.00 0.00 0.01 0.01 0.01
0.03 0.04 0.03 0.03 0.02 0.02 0.02 0.03 0.02 0.01 0.02 0.02 0.03 0.02 0.02 0.03 0.02 0.02 0.02 0.02 0.02 0.02 0.02 0.02 0.02 0.02 0.00 0.00 0.00 0.00 0.00 0.00 0.00 0.00 0.00 0.00 0.00 0.00 0.00 0.00 0.00 0.00 0.00 0.00 0.02 0.00 0.00
0.04 0.03 0.03 0.03 0.03 0.02 0.02 0.02 0.01 0.02 0.02 0.02 0.03 0.03 0.02 0.03 0.03 0.02 0.02 0.02 0.02 0.02 0.02 0.02 0.02 0.01 0.00 0.00 0.00 0.00 0.00 0.00 0.00 0.00 0.00 0.00 0.00 0.00 0.00 0.00 0.00 0.00 0.00 0.00 0.00 0.01 0.01
0.04 0.03 0.03 0.03 0.03 0.02 0.02 0.02 0.01 0.01 0.02 0.02 0.02 0.02 0.02 0.02 0.02 0.02 0.02 0.02 0.02 0.02 0.03 0.03 0.02 0.00 0.00 0.00 0.00 0.00 0.00 0.00 0.00 0.00 0.00 0.00 0.00 0.00 0.00 0.00 0.00 0.00 0.00 0.00 0.00 0.01 0.02
0.03 0.03 0.03 0.03 0.03 0.03 0.02 0.02 0.01 0.01 0.01 0.02 0.02 0.01 0.02 0.02 0.02 0.02 0.02 0.02 0.02 0.03 0.03 0.02 0.01 0.00 0.00 0.00 0.00 0.00 0.00 0.02 0.00 0.00 0.00 0.00 0.00 0.00 0.00 0.00 0.00 0.00 0.00 0.00 0.00 0.00 0.01
0.04 0.04 0.03 0.03 0.03 0.03 0.03 0.02 0.02 0.02 0.02 0.02 0.02 0.02 0.01 0.01 0.02 0.03 0.02 0.02 0.02 0.02 0.01 0.00 0.00 0.00 0.00 0.00 0.00 0.00 0.00 0.02 0.01 0.00 0.00 0.00 0.00 0.00 0.00 0.00 0.00 0.00 0.00 0.00 0.02 0.07 0.00
0.05 0.04 0.03 0.03 0.03 0.03 0.03 0.04 0.03 0.02 0.02 0.02 0.01 0.01 0.01 0.01 0.02 0.03 0.01 0.01 0.00 0.00 0.00 0.00 0.00 0.00 0.00 0.00 0.00 0.00 0.00 0.00 0.00 0.00 0.01 0.00 0.00 0.00 0.00 0.00 0.00 0.00 0.00 0.00 0.00 0.00 0.00
0.05 0.04 0.03 0.02 0.03 0.03 0.03 0.04 0.04 0.03 0.02 0.02 0.01 0.01 0.01 0.01 0.04 0.03 0.00 0.00 0.00 0.00 0.00 0.00 0.00 0.00 0.00 0.00 0.00 0.00 0.00 0.00 0.00 0.00 0.01 0.00 0.00 0.00 0.00 0.00 0.00 0.00 0.00 0.00 0.00 0.00 0.00
0.06 0.05 0.04 0.03 0.03 0.03 0.03 0.04 0.04 0.03 0.03 0.02 0.02 0.01 0.01 0.04 0.05 0.01 0.00 0.00 0.00 0.00 0.00 0.00 0.00 0.00 0.00 0.00 0.00 0.00 0.00 0.00 0.00 0.00 0.00 0.00 0.00 0.00 0.00 0.00 0.00 0.00 0.00 0.00 0.00 0.00 0.00
0.08 0.07 0.06 0.05 0.03 0.03 0.03 0.03 0.04 0.03 0.04 0.03 0.02 0.02 0.03 0.05 0.01 0.00 0.00 0.00 0.00 0.00 0.00 0.00 0.00 0.00 0.00 0.00 0.00 0.00 0.00 0.00 0.00 0.00 0.01 0.00 0.00 0.00 0.00 0.00 0.00 0.00 0.00 0.00 0.00 0.00 0.00
0.08 0.08 0.08 0.07 0.04 0.03 0.02 0.03 0.04 0.04 0.04 0.04 0.03 0.02 0.04 0.03 0.00 0.00 0.00 0.00 0.00 0.00 0.01 0.00 0.00 0.00 0.00 0.00 0.00 0.00 0.00 0.00 0.00 0.00 0.01 0.02 0.00 0.00 0.00 0.00 0.00 0.01 0.00 0.00 0.00 0.00 0.05
0.11 0.08 0.07 0.08 0.07 0.05 0.03 0.03 0.04 0.04 0.05 0.05 0.04 0.04 0.07 0.05 0.01 0.00 0.00 0.00 0.01 0.04 0.03 0.00 0.00 0.00 0.00 0.00 0.00 0.00 0.00 0.00 0.00 0.00 0.00 0.00 0.00 0.01 0.01 0.00 0.00 0.00 0.00 0.00 0.00 0.00 0.01
0.14 0.10 0.07 0.06 0.07 0.08 0.06 0.05 0.04 0.05 0.06 0.07 0.05 0.06 0.07 0.02 0.01 0.00 0.01 0.07 0.05 0.00 0.00 0.00 0.00 0.00 0.00 0.00 0.00 0.00 0.00 0.00 0.00 0.00 0.00 0.00 0.00 0.00 0.00 0.00 0.00 0.00 0.00 0.01 0.06 0.02 0.01
0.22 0.14 0.11 0.08 0.06 0.07 0.07 0.07 0.06 0.06 0.08 0.09 0.07 0.09 0.07 0.03 0.00 0.01 0.10 0.19 0.02 0.00 0.00 0.00 0.00 0.00 0.00 0.00 0.00 0.00 0.00 0.00 0.00 0.00 0.00 0.00 0.01 0.00 0.00 0.00 0.01 0.00 0.00 0.02 0.16 0.05 0.02
0.26 0.23 0.16 0.12 0.08 0.08 0.08 0.08 0.08 0.09 0.12 0.13 0.15 0.14 0.14 0.04 0.00 0.04 0.27 0.16 0.00 0.00 0.00 0.00 0.00 0.00 0.00 0.00 0.00 0.00 0.00 0.00 0.00 0.00 0.01 0.04 0.01 0.01 0.00 0.00 0.00 0.00 0.00 0.00 0.01 0.02 0.02
0.37 0.29 0.28 0.21 0.15 0.11 0.11 0.11 0.11 0.15 0.19 0.22 0.21 0.18 0.09 0.03 0.05 0.18 0.39 0.08 0.00 0.00 0.00 0.00 0.00 0.00 0.00 0.00 0.00 0.00 0.00 0.00 0.00 0.00 0.00 0.06 0.16 0.03 0.00 0.00 0.00 0.00 0.00 0.00 0.00 0.02 0.02
0.49 0.35 0.34 0.30 0.28 0.20 0.17 0.19 0.20 0.18 0.27 0.29 0.30 0.26 0.04 0.05 0.28 0.44 0.29 0.03 0.00 0.00 0.00 0.00 0.00 0.00 0.00 0.00 0.00 0.00 0.00 0.00 0.00 0.00 0.00 0.00 0.02 0.03 0.00 0.00 0.00 0.00 0.00 0.00 0.00 0.00 0.00
0.53 0.48 0.43 0.42 0.34 0.37 0.29 0.30 0.34 0.27 0.34 0.52 0.42 0.27 0.10 0.10 0.33 0.17 0.05 0.00 0.00 0.00 0.00 0.00 0.00 0.00 0.00 0.00 0.00 0.00 0.00 0.00 0.00 0.00 0.00 0.00 0.00 0.00 0.00 0.00 0.00 0.00 0.01 0.03 0.00 0.00 0.00
0.61 0.43 0.43 0.55 0.49 0.52 0.49 0.44 0.48 0.40 0.38 0.51 0.55 0.38 0.47 0.15 0.17 0.06 0.00 0.00 0.00 0.00 0.00 0.00 0.00 0.00 0.00 0.00 0.00 0.00 0.00 0.00 0.00 0.00 0.00 0.00 0.00 0.00 0.00 0.00 0.00 0.00 0.00 0.00 0.00 0.00 0.00
0.69 0.54 0.40 0.50 0.54 0.65 0.68 0.61 0.61 0.60 0.47 0.49 0.54 0.63 1.06 0.47 0.02 0.00 0.00 0.00 0.00 0.00 0.00 0.00 0.00 0.00 0.00 0.00 0.00 0.00 0.00 0.00 0.00 0.00 0.00 0.00 0.00 0.00 0.00 0.00 0.00 0.00 0.00 0.00 0.00 0.00 0.00
0.65 0.60 0.51 0.52 0.57 0.64 0.76 0.80 0.76 0.79 0.64 0.95 0.94 0.36 0.38 0.24 0.03 0.00 0.00 0.00 0.00 0.00 0.00 0.00 0.00 0.00 0.00 0.00 0.00 0.00 0.00 0.00 0.00 0.00 0.00 0.00 0.00 0.00 0.00 0.00 0.00 0.00 0.00 0.00 0.00 0.00 0.00
0.58 0.50 0.48 0.46 0.56 0.71 0.71 0.83 0.85 1.04 1.08 1.72 1.33 0.15 0.07 0.03 0.01 0.01 0.01 0.00 0.00 0.00 0.00 0.00 0.00 0.00 0.00 0.00 0.00 0.00 0.00 0.00 0.00 0.00 0.00 0.00 0.00 0.00 0.00 0.00 0.00 0.00 0.00 0.00 0.00 0.00 0.00
0.54 0.51 0.52 0.43 0.50 0.68 0.67 0.71 0.85 1.19 1.95 2.75 1.30 0.08 0.10 0.06 0.03 0.02 0.01 0.00 0.00 0.00 0.00 0.00 0.00 0.00 0.00 0.01 0.02 0.01 0.01 0.00 0.00 0.00 0.00 0.00 0.00 0.00 0.00 0.00 0.00 0.00 0.00 0.00 0.00 0.00 0.00
0.51 0.57 0.53 0.54 0.47 0.63 0.60 0.60 0.73 1.30 1.90 1.79 0.80 0.16 0.29 0.19 0.11 0.01 0.00 0.00 0.00 0.00 0.00 0.00 0.00 0.00 0.00 0.01 0.07 0.08 0.02 0.01 0.02 0.03 0.01 0.01 0.00 0.00 0.00 0.00 0.00 0.00 0.00 0.00 0.00 0.00 0.00
0.57 0.52 0.51 0.58 0.51 0.59 0.59 0.57 0.60 0.94 1.29 1.16 0.49 0.28 0.46 0.33 0.07 0.01 0.00 0.00 0.01 0.01 0.00 0.00 0.00 0.00 0.00 0.03 0.10 0.24 0.13 0.07 0.01 0.01 0.02 0.03 0.02 0.02 0.00 0.00 0.00 0.00 0.00 0.00 0.00 0.00 0.00
0.62 0.51 0.47 0.52 0.54 0.56 0.57 0.54 0.49 0.60 0.96 1.11 0.70 0.47 0.70 0.48 0.13 0.03 0.03 0.01 0.01 0.03 0.04 0.03 0.02 0.02 0.00 0.05 0.08 0.12 0.09 0.03 0.01 0.03 0.00 0.00 0.01 0.05 0.01 0.00 0.00 0.00 0.00 0.00 0.00 0.00 0.00
0.63 0.60 0.47 0.50 0.56 0.48 0.49 0.47 0.40 0.41 0.61 0.94 0.96 0.62 0.97 0.67 0.17 0.15 0.13 0.04 0.01 0.03 0.07 0.03 0.04 0.06 0.06 0.11 0.06 0.05 0.04 0.00 0.00 0.04 0.05 0.01 0.01 0.02 0.04 0.02 0.00 0.00 0.00 0.00 0.00 0.00 0.00
0.56 0.63 0.50 0.50 0.50 0.39 0.39 0.37 0.31 0.31 0.49 0.63 1.09 0.63 0.93 0.73 0.25 0.20 0.20 0.19 0.06 0.03 0.07 0.03 0.13 0.13 0.28 0.20 0.05 0.01 0.01 0.00 0.01 0.00 0.02 0.06 0.05 0.03 0.03 0.04 0.00 0.00 0.00 0.00 0.00 0.00 0.00
0.56 0.57 0.45 0.47 0.43 0.36 0.34 0.33 0.28 0.31 0.50 0.56 0.89 0.67 0.69 1.01 0.60 0.22 0.19 0.16 0.08 0.01 0.01 0.02 0.04 0.04 0.07 0.11 0.03 0.05 0.02 0.02 0.00 0.00 0.00 0.01 0.05 0.06 0.01 0.00 0.00 0.00 0.00 0.00 0.00 0.00 0.00

GFSGBSN_prec_precacc_051.txt.gz
Total_Precipitation_Accumulation
0.04 0.04 0.03 0.02 0.02 0.02 0.02 0.02 0.02 0.02 0.02 0.02 0.03 0.02 0.03 0.02 0.03 0.02 0.02 0.02 0.02 0.02 0.02 0.02 0.02 0.02 0.01 0.00 0.00 0.00 0.00 0.00 0.00 0.00 0.00 0.00 0.00 0.00 0.00 0.00 0.00 0.00 0.00 0.00 0.01 0.01 0.01
0.03 0.04 0.03 0.03 0.02 0.02 0.02 0.03 0.02 0.02 0.02 0.02 0.03 0.02 0.02 0.03 0.02 0.02 0.02 0.02 0.02 0.02 0.02 0.02 0.02 0.02 0.00 0.00 0.00 0.00 0.00 0.00 0.00 0.00 0.00 0.00 0.00 0.00 0.00 0.00 0.00 0.00 0.00 0.00 0.02 0.00 0.00
0.04 0.04 0.04 0.03 0.03 0.02 0.02 0.02 0.01 0.02 0.02 0.02 0.03 0.03 0.02 0.03 0.03 0.02 0.02 0.02 0.02 0.02 0.02 0.02 0.02 0.01 0.00 0.00 0.00 0.00 0.00 0.00 0.00 0.00 0.00 0.00 0.00 0.00 0.00 0.00 0.00 0.00 0.00 0.00 0.00 0.01 0.01
0.04 0.04 0.04 0.04 0.03 0.03 0.02 0.02 0.01 0.01 0.02 0.02 0.03 0.03 0.02 0.02 0.02 0.02 0.02 0.02 0.02 0.02 0.03 0.03 0.02 0.00 0.00 0.00 0.00 0.00 0.00 0.00 0.00 0.00 0.00 0.00 0.00 0.00 0.00 0.00 0.00 0.00 0.00 0.00 0.00 0.01 0.02
0.04 0.04 0.03 0.04 0.04 0.03 0.03 0.02 0.01 0.01 0.01 0.02 0.02 0.02 0.02 0.02 0.02 0.02 0.02 0.02 0.02 0.03 0.03 0.02 0.01 0.00 0.00 0.00 0.00 0.00 0.00 0.02 0.00 0.00 0.00 0.00 0.00 0.00 0.00 0.00 0.00 0.00 0.00 0.00 0.00 0.00 0.01
0.04 0.04 0.03 0.04 0.03 0.03 0.04 0.03 0.02 0.02 0.02 0.02 0.02 0.02 0.01 0.01 0.02 0.03 0.02 0.02 0.02 0.02 0.01 0.00 0.00 0.00 0.00 0.00 0.00 0.00 0.00 0.02 0.01 0.00 0.00 0.00 0.00 0.00 0.00 0.00 0.00 0.00 0.00 0.00 0.02 0.07 0.00
0.05 0.04 0.04 0.04 0.03 0.03 0.03 0.04 0.04 0.03 0.02 0.02 0.01 0.01 0.01 0.01 0.02 0.03 0.01 0.01 0.00 0.00 0.00 0.00 0.00 0.00 0.00 0.00 0.00 0.00 0.00 0.00 0.00 0.00 0.01 0.00 0.00 0.00 0.00 0.00 0.00 0.00 0.00 0.00 0.00 0.00 0.00
0.05 0.04 0.03 0.03 0.03 0.03 0.03 0.04 0.04 0.03 0.02 0.02 0.01 0.01 0.01 0.01 0.04 0.03 0.00 0.00 0.00 0.00 0.00 0.00 0.00 0.00 0.00 0.00 0.00 0.00 0.00 0.00 0.00 0.00 0.01 0.00 0.00 0.00 0.00 0.00 0.00 0.00 0.00 0.00 0.00 0.00 0.00
0.06 0.06 0.05 0.03 0.04 0.04 0.03 0.05 0.05 0.03 0.03 0.02 0.02 0.01 0.01 0.04 0.05 0.01 0.00 0.00 0.00 0.00 0.00 0.00 0.00 0.00 0.00 0.00 0.00 0.00 0.00 0.00 0.00 0.00 0.00 0.00 0.00 0.00 0.00 0.00 0.00 0.00 0.00 0.00 0.00 0.00 0.00
0.08 0.07 0.06 0.05 0.04 0.04 0.04 0.04 0.04 0.04 0.04 0.03 0.02 0.02 0.03 0.05 0.01 0.00 0.00 0.00 0.00 0.00 0.00 0.00 0.00 0.00 0.00 0.00 0.00 0.00 0.00 0.00 0.00 0.00 0.01 0.00 0.00 0.00 0.00 0.00 0.00 0.00 0.00 0.00 0.00 0.00 0.00
0.09 0.08 0.08 0.07 0.05 0.03 0.03 0.03 0.04 0.05 0.04 0.04 0.03 0.03 0.04 0.03 0.00 0.00 0.00 0.00 0.00 0.00 0.01 0.00 0.00 0.00 0.00 0.00 0.00 0.00 0.00 0.00 0.00 0.00 0.01 0.02 0.00 0.00 0.00 0.00 0.00 0.01 0.00 0.00 0.00 0.00 0.05
0.11 0.08 0.07 0.08 0.08 0.06 0.04 0.04 0.04 0.05 0.05 0.05 0.04 0.05 0.07 0.05 0.01 0.00 0.00 0.01 0.02 0.04 0.03 0.00 0.00 0.00 0.00 0.00 0.00 0.00 0.00 0.00 0.00 0.00 0.00 0.00 0.00 0.01 0.01 0.00 0.00 0.00 0.00 0.00 0.00 0.00 0.01
0.14 0.10 0.07 0.07 0.07 0.09 0.08 0.06 0.06 0.07 0.07 0.08 0.06 0.07 0.09 0.02 0.01 0.00 0.01 0.08 0.06 0.00 0.00 0.00 0.00 0.00 0.00 0.00 0.00 0.00 0.00 0.00 0.00 0.00 0.00 0.00 0.00 0.00 0.00 0.00 0.00 0.00 0.00 0.01 0.06 0.02 0.01
0.22 0.14 0.11 0.08 0.07 0.08 0.09 0.09 0.08 0.08 0.11 0.11 0.08 0.10 0.09 0.03 0.00 0.02 0.11 0.21 0.02 0.00 0.00 0.00 0.00 0.00 0.00 0.00 0.00 0.00 0.00 0.00 0.00 0.00 0.00 0.00 0.01 0.00 0.00 0.00 0.01 0.00 0.00 0.02 0.16 0.05 0.03
0.26 0.24 0.16 0.12 0.09 0.08 0.09 0.09 0.11 0.12 0.16 0.16 0.21 0.19 0.16 0.04 0.00 0.05 0.29 0.19 0.00 0.00 0.00 0.00 0.00 0.00 0.00 0.00 0.00 0.00 0.00 0.00 0.00 0.00 0.01 0.04 0.01 0.01 0.00 0.00 0.00 0.00 0.00 0.00 0.01 0.02 0.03
0.38 0.30 0.29 0.22 0.16 0.11 0.11 0.12 0.13 0.18 0.24 0.27 0.26 0.22 0.11 0.03 0.05 0.21 0.43 0.10 0.00 0.00 0.00 0.00 0.00 0.00 0.00 0.00 0.00 0.00 0.00 0.00 0.00 0.00 0.00 0.06 0.16 0.03 0.00 0.00 0.00 0.00 0.00 0.00 0.00 0.04 0.04
0.50 0.36 0.34 0.30 0.28 0.21 0.18 0.20 0.21 0.21 0.31 0.34 0.36 0.33 0.07 0.06 0.31 0.48 0.33 0.03 0.00 0.00 0.00 0.00 0.00 0.00 0.00 0.00 0.00 0.00 0.00 0.00 0.00 0.00 0.00 0.00 0.02 0.03 0.00 0.00 0.00 0.00 0.00 0.00 0.00 0.00 0.00
0.54 0.48 0.43 0.42 0.34 0.37 0.29 0.31 0.36 0.30 0.38 0.60 0.53 0.35 0.11 0.11 0.37 0.19 0.05 0.00 0.00 0.00 0.00 0.00 0.00 0.00 0.00 0.00 0.00 0.00 0.00 0.00 0.00 0.00 0.00 0.00 0.00 0.00 0.00 0.00 0.00 0.00 0.01 0.03 0.00 0.00 0.00
0.62 0.44 0.43 0.56 0.49 0.52 0.49 0.45 0.50 0.43 0.42 0.63 0.74 0.45 0.50 0.17 0.19 0.07 0.01 0.00 0.00 0.00 0.00 0.00 0.00 0.00 0.00 0.00 0.00 0.00 0.00 0.00 0.00 0.00 0.00 0.00 0.00 0.00 0.00 0.00 0.00 0.00 0.00 0.00 0.00 0.00 0.00
0.69 0.54 0.41 0.51 0.55 0.66 0.68 0.62 0.63 0.63 0.51 0.65 0.77 0.76 1.13 0.54 0.03 0.00 0.00 0.00 0.00 0.00 0.00 0.00 0.00 0.00 0.00 0.00 0.00 0.00 0.00 0.00 0.00 0.00 0.00 0.00 0.00 0.00 0.00 0.00 0.00 0.00 0.00 0.00 0.00 0.00 0.00
0.66 0.62 0.53 0.54 0.59 0.66 0.78 0.82 0.78 0.84 0.73 1.24 1.30 0.45 0.41 0.29 0.05 0.00 0.00 0.00 0.00 0.00 0.00 0.00 0.00 0.00 0.00 0.00 0.00 0.00 0.00 0.00 0.00 0.00 0.00 0.00 0.00 0.00 0.00 0.00 0.00 0.00 0.00 0.00 0.00 0.00 0.00
0.60 0.52 0.50 0.47 0.58 0.74 0.73 0.86 0.89 1.09 1.23 2.21 1.77 0.18 0.07 0.03 0.01 0.01 0.01 0.00 0.00 0.00 0.00 0.00 0.00 0.00 0.00 0.00 0.00 0.00 0.03 0.05 0.04 0.00 0.00 0.00 0.00 0.00 0.00 0.00 0.00 0.00 0.00 0.00 0.00 0.00 0.00
0.55 0.52 0.52 0.44 0.50 0.70 0.72 0.75 0.89 1.25 2.15 3.41 1.83 0.12 0.11 0.06 0.03 0.04 0.01 0.00 0.00 0.00 0.00 0.00 0.00 0.00 0.00 0.01 0.02 0.02 0.03 0.02 0.06 0.05 0.01 0.00 0.00 0.00 0.00 0.00 0.00 0.00 0.00 0.00 0.00 0.00 0.00
0.51 0.58 0.54 0.55 0.48 0.64 0.61 0.63 0.78 1.35 2.01 2.23 1.17 0.19 0.32 0.26 0.12 0.02 0.00 0.00 0.00 0.00 0.00 0.00 0.00 0.00 0.00 0.01 0.07 0.10 0.06 0.03 0.03 0.06 0.06 0.02 0.00 0.00 0.00 0.00 0.00 0.00 0.00 0.00 0.00 0.00 0.00
0.58 0.53 0.52 0.59 0.52 0.60 0.59 0.57 0.62 0.98 1.34 1.41 0.94 0.33 0.49 0.38 0.08 0.01 0.00 0.00 0.01 0.01 0.00 0.00 0.00 0.00 0.00 0.03 0.12 0.27 0.24 0.23 0.05 0.03 0.05 0.06 0.03 0.02 0.00 0.00 0.00 0.00 0.00 0.00 0.00 0.00 0.00
0.63 0.53 0.48 0.54 0.56 0.57 0.58 0.54 0.49 0.61 1.00 1.19 1.14 0.74 0.85 0.58 0.14 0.03 0.03 0.01 0.01 0.03 0.04 0.03 0.02 0.02 0.00 0.05 0.14 0.15 0.19 0.19 0.13 0.06 0.01 0.02 0.01 0.06 0.02 0.00 0.00 0.00 0.00 0.00 0.00 0.00 0.00
0.64 0.61 0.49 0.52 0.58 0.51 0.52 0.48 0.41 0.42 0.63 1.04 1.29 0.88 1.34 0.96 0.20 0.15 0.14 0.05 0.02 0.03 0.07 0.03 0.04 0.06 0.06 0.12 0.10 0.06 0.04 0.03 0.10 0.16 0.07 0.03 0.03 0.03 0.05 0.02 0.00 0.00 0.00 0.00 0.00 0.00 0.00
0.57 0.64 0.51 0.51 0.51 0.42 0.43 0.40 0.33 0.33 0.52 0.69 1.26 0.74 1.33 1.15 0.30 0.20 0.22 0.19 0.06 0.05 0.08 0.03 0.14 0.14 0.30 0.30 0.08 0.03 0.01 0.01 0.01 0.05 0.14 0.11 0.05 0.04 0.05 0.06 0.00 0.00 0.00 0.00 0.00 0.00 0.00
0.57 0.58 0.46 0.48 0.44 0.37 0.36 0.35 0.31 0.34 0.53 0.62 0.95 0.73 0.89 1.34 0.76 0.25 0.20 0.16 0.09 0.01 0.02 0.03 0.05 0.04 0.08 0.24 0.11 0.09 0.03 0.02 0.00 0.00 0.01 0.05 0.05 0.06 0.01 0.00 0.00 0.00 0.00 0.00 0.00 0.00 0.00

GFSGBSN_prec_precacc_057.txt.gz
Total_Precipitation_Accumulation
0.04 0.05 0.04 0.03 0.03 0.02 0.02 0.03 0.03 0.02 0.02 0.02 0.03 0.02 0.03 0.02 0.03 0.02 0.02 0.02 0.02 0.02 0.02 0.02 0.02 0.03 0.01 0.00 0.00 0.00 0.00 0.00 0.00 0.00 0.00 0.00 0.00 0.00 0.00 0.00 0.00 0.00 0.00 0.00 0.01 0.01 0.01
0.04 0.04 0.04 0.03 0.03 0.02 0.02 0.03 0.03 0.02 0.02 0.03 0.03 0.02 0.02 0.03 0.02 0.02 0.02 0.02 0.02 0.02 0.02 0.02 0.02 0.02 0.00 0.00 0.00 0.00 0.00 0.00 0.00 0.00 0.00 0.00 0.00 0.00 0.00 0.00 0.00 0.00 0.00 0.00 0.02 0.00 0.00
0.05 0.04 0.04 0.04 0.03 0.02 0.02 0.02 0.01 0.02 0.02 0.02 0.03 0.03 0.02 0.03 0.03 0.02 0.02 0.02 0.02 0.02 0.02 0.02 0.02 0.01 0.00 0.00 0.00 0.00 0.00 0.00 0.00 0.00 0.00 0.00 0.00 0.00 0.00 0.00 0.00 0.00 0.00 0.00 0.00 0.01 0.01
0.05 0.05 0.04 0.05 0.04 0.03 0.02 0.02 0.02 0.01 0.02 0.02 0.03 0.03 0.02 0.02 0.02 0.02 0.02 0.02 0.02 0.02 0.03 0.03 0.03 0.00 0.00 0.00 0.00 0.00 0.00 0.00 0.00 0.00 0.00 0.00 0.00 0.00 0.00 0.00 0.00 0.00 0.00 0.00 0.00 0.01 0.02
0.04 0.05 0.04 0.05 0.04 0.04 0.03 0.03 0.02 0.02 0.02 0.03 0.02 0.02 0.02 0.02 0.02 0.02 0.02 0.02 0.02 0.03 0.03 0.02 0.01 0.00 0.00 0.00 0.00 0.00 0.00 0.02 0.00 0.00 0.00 0.00 0.00 0.00 0.00 0.00 0.00 0.00 0.00 0.00 0.00 0.00 0.01
0.06 0.06 0.05 0.05 0.04 0.04 0.04 0.03 0.03 0.02 0.02 0.03 0.02 0.02 0.01 0.01 0.02 0.03 0.02 0.02 0.02 0.02 0.01 0.00 0.00 0.00 0.00 0.00 0.00 0.00 0.00 0.02 0.01 0.00 0.00 0.00 0.00 0.00 0.00 0.00 0.00 0.00 0.00 0.00 0.02 0.07 0.00
0.06 0.05 0.05 0.05 0.04 0.04 0.04 0.04 0.04 0.03 0.03 0.02 0.02 0.01 0.01 0.01 0.02 0.03 0.01 0.01 0.00 0.00 0.00 0.00 0.00 0.00 0.00 0.00 0.00 0.00 0.00 0.00 0.00 0.00 0.01 0.00 0.00 0.00 0.00 0.00 0.00 0.00 0.00 0.00 0.00 0.00 0.00
0.06 0.05 0.04 0.04 0.04 0.04 0.05 0.06 0.06 0.05 0.04 0.03 0.02 0.01 0.01 0.01 0.04 0.03 0.00 0.00 0.00 0.00 0.00 0.00 0.00 0.00 0.00 0.00 0.00 0.00 0.00 0.00 0.00 0.00 0.01 0.00 0.00 0.00 0.00 0.00 0.00 0.00 0.00 0.00 0.00 0.00 0.00
0.08 0.07 0.06 0.04 0.05 0.05 0.05 0.07 0.06 0.04 0.04 0.04 0.03 0.01 0.02 0.04 0.05 0.01 0.00 0.00 0.00 0.00 0.00 0.00 0.00 0.00 0.00 0.00 0.00 0.00 0.00 0.00 0.00 0.00 0.00 0.00 0.00 0.00 0.00 0.00 0.00 0.00 0.00 0.00 0.00 0.00 0.00
0.10 0.09 0.07 0.05 0.05 0.05 0.05 0.05 0.05 0.04 0.05 0.04 0.04 0.03 0.03 0.05 0.01 0.00 0.00 0.00 0.00 0.00 0.00 0.00 0.00 0.00 0.00 0.00 0.00 0.00 0.00 0.00 0.00 0.00 0.01 0.00 0.00 0.00 0.00 0.00 0.00 0.00 0.00 0.00 0.00 0.00 0.00
0.11 0.10 0.09 0.08 0.06 0.04 0.03 0.05 0.06 0.06 0.05 0.05 0.04 0.03 0.05 0.03 0.00 0.00 0.00 0.00 0.00 0.00 0.01 0.00 0.00 0.00 0.00 0.00 0.00 0.00 0.00 0.00 0.00 0.00 0.01 0.02 0.00 0.00 0.00 0.00 0.00 0.01 0.00 0.00 0.00 0.00 0.05
0.14 0.10 0.08 0.09 0.08 0.07 0.06 0.06 0.06 0.06 0.06 0.06 0.06 0.06 0.09 0.05 0.01 0.00 0.00 0.01 0.03 0.05 0.03 0.00 0.00 0.00 0.00 0.00 0.00 0.00 0.00 0.00 0.00 0.00 0.00 0.00 0.00 0.01 0.01 0.00 0.00 0.00 0.00 0.00 0.00 0.00 0.01
0.16 0.11 0.08 0.08 0.09 0.11 0.09 0.08 0.08 0.09 0.10 0.10 0.10 0.11 0.12 0.02 0.01 0.00 0.01 0.09 0.09 0.01 0.00 0.00 0.00 0.00 0.00 0.00 0.00 0.00 0.00 0.00 0.00 0.00 0.00 0.00 0.00 0.00 0.00 0.00 0.00 0.00 0.00 0.01 0.06 0.02 0.01
0.23 0.15 0.12 0.09 0.08 0.09 0.11 0.10 0.10 0.12 0.14 0.13 0.12 0.15 0.10 0.03 0.00 0.02 0.11 0.25 0.05 0.00 0.00 0.00 0.00 0.00 0.00 0.00 0.00 0.00 0.00 0.00 0.00 0.00 0.00 0.00 0.01 0.00 0.00 0.00 0.01 0.00 0.00 0.02 0.16 0.05 0.03
0.28 0.25 0.17 0.13 0.10 0.10 0.12 0.12 0.14 0.16 0.20 0.20 0.29 0.25 0.18 0.04 0.00 0.05 0.30 0.25 0.02 0.00 0.00 0.00 0.00 0.00 0.00 0.00 0.00 0.00 0.00 0.00 0.00 0.00 0.01 0.04 0.01 0.01 0.00 0.00 0.00 0.00 0.00 0.00 0.01 0.02 0.03
0.38 0.31 0.30 0.23 0.17 0.14 0.14 0.15 0.17 0.22 0.29 0.33 0.35 0.30 0.12 0.03 0.05 0.22 0.47 0.12 0.00 0.00 0.00 0.00 0.00 0.00 0.00 0.00 0.00 0.00 0.00 0.00 0.00 0.00 0.00 0.06 0.16 0.03 0.00 0.00 0.00 0.00 0.00 0.00 0.00 0.04 0.04
0.50 0.37 0.35 0.31 0.29 0.22 0.20 0.24 0.26 0.24 0.35 0.48 0.64 0.56 0.11 0.06 0.33 0.51 0.35 0.04 0.00 0.00 0.00 0.00 0.00 0.00 0.00 0.00 0.00 0.00 0.00 0.00 0.00 0.00 0.00 0.00 0.02 0.03 0.00 0.00 0.00 0.00 0.00 0.00 0.00 0.00 0.00
0.54 0.49 0.44 0.43 0.35 0.39 0.31 0.34 0.41 0.34 0.45 0.94 1.07 0.66 0.14 0.12 0.43 0.21 0.06 0.00 0.00 0.00 0.00 0.00 0.00 0.00 0.00 0.00 0.00 0.00 0.00 0.00 0.00 0.00 0.00 0.00 0.00 0.00 0.00 0.00 0.00 0.00 0.01 0.03 0.00 0.00 0.00
0.63 0.45 0.45 0.57 0.50 0.54 0.51 0.47 0.52 0.47 0.55 1.07 1.35 0.71 0.57 0.17 0.22 0.07 0.01 0.00 0.00 0.00 0.00 0.00 0.00 0.00 0.00 0.00 0.00 0.00 0.00 0.00 0.00 0.00 0.00 0.00 0.00 0.00 0.00 0.00 0.00 0.00 0.00 0.00 0.00 0.00 0.01
0.71 0.56 0.43 0.54 0.58 0.69 0.71 0.65 0.65 0.66 0.66 1.23 1.47 1.06 1.41 0.62 0.03 0.00 0.00 0.00 0.00 0.00 0.00 0.00 0.00 0.00 0.00 0.00 0.00 0.00 0.00 0.00 0.00 0.00 0.00 0.00 0.00 0.00 0.00 0.00 0.00 0.00 0.00 0.00 0.00 0.00 0.00
0.68 0.64 0.56 0.58 0.62 0.69 0.82 0.86 0.82 0.88 0.87 2.03 2.17 0.68 0.49 0.40 0.08 0.00 0.00 0.00 0.00 0.00 0.00 0.00 0.00 0.00 0.00 0.00 0.00 0.00 0.00 0.00 0.00 0.00 0.00 0.00 0.00 0.00 0.00 0.00 0.00 0.00 0.00 0.00 0.00 0.00 0.00
0.63 0.55 0.54 0.52 0.63 0.80 0.79 0.91 0.96 1.17 1.43 3.13 2.57 0.30 0.10 0.03 0.02 0.03 0.02 0.00 0.00 0.00 0.00 0.00 0.00 0.00 0.00 0.00 0.00 0.00 0.03 0.05 0.04 0.00 0.00 0.00 0.00 0.00 0.00 0.00 0.00 0.00 0.00 0.00 0.00 0.00 0.00
0.58 0.56 0.56 0.48 0.56 0.76 0.78 0.81 0.96 1.37 2.50 4.36 2.44 0.19 0.13 0.09 0.04 0.06 0.02 0.00 0.00 0.00 0.00 0.00 0.00 0.00 0.00 0.01 0.02 0.02 0.03 0.02 0.06 0.07 0.04 0.02 0.00 0.00 0.00 0.00 0.00 0.00 0.00 0.00 0.00 0.00 0.00
0.55 0.62 0.58 0.59 0.52 0.69 0.66 0.69 0.86 1.49 2.37 2.72 1.43 0.29 0.42 0.36 0.12 0.02 0.00 0.00 0.00 0.00 0.00 0.00 0.00 0.00 0.00 0.01 0.08 0.12 0.08 0.04 0.04 0.07 0.14 0.10 0.02 0.04 0.03 0.00 0.02 0.01 0.00 0.00 0.00 0.00 0.00
0.61 0.56 0.55 0.62 0.55 0.63 0.63 0.62 0.70 1.14 1.60 1.72 1.25 0.49 0.54 0.42 0.08 0.02 0.00 0.00 0.01 0.01 0.00 0.00 0.00 0.00 0.00 0.03 0.12 0.27 0.24 0.23 0.05 0.03 0.07 0.16 0.15 0.14 0.08 0.04 0.01 0.00 0.00 0.00 0.00 0.00 0.00
0.65 0.54 0.49 0.55 0.57 0.59 0.60 0.57 0.54 0.72 1.24 1.56 1.60 1.09 1.08 0.69 0.17 0.03 0.03 0.01 0.01 0.03 0.04 0.03 0.02 0.02 0.00 0.05 0.14 0.15 0.19 0.19 0.13 0.06 0.01 0.05 0.17 0.29 0.18 0.12 0.04 0.00 0.00 0.00 0.00 0.00 0.00
0.65 0.62 0.51 0.54 0.60 0.52 0.53 0.49 0.42 0.45 0.74 1.44 1.95 1.21 1.79 1.35 0.26 0.16 0.14 0.05 0.02 0.03 0.07 0.03 0.04 0.06 0.06 0.12 0.10 0.06 0.04 0.03 0.10 0.16 0.08 0.05 0.15 0.23 0.27 0.20 0.05 0.00 0.00 0.00 0.01 0.00 0.00
0.59 0.66 0.54 0.54 0.54 0.46 0.47 0.42 0.34 0.34 0.57 0.91 1.93 1.12 1.60 1.57 0.41 0.21 0.22 0.19 0.06 0.05 0.08 0.03 0.14 0.14 0.30 0.30 0.08 0.03 0.01 0.01 0.01 0.05 0.15 0.19 0.18 0.20 0.25 0.25 0.09 0.01 0.03 0.04 0.01 0.00 0.00
0.58 0.60 0.47 0.50 0.46 0.39 0.40 0.44 0.36 0.37 0.57 0.74 1.40 1.05 1.08 1.59 0.99 0.29 0.21 0.17 0.09 0.01 0.02 0.03 0.05 0.04 0.08 0.24 0.11 0.09 0.03 0.02 0.00 0.00 0.02 0.08 0.13 0.16 0.15 0.16 0.06 0.04 0.06 0.09 0.06 0.01 0.00

GFSGBSN_prec_precacc_063.txt.gz
Total_Precipitation_Accumulation
0.05 0.05 0.05 0.04 0.04 0.03 0.03 0.03 0.04 0.03 0.02 0.02 0.03 0.02 0.03 0.02 0.03 0.02 0.02 0.02 0.02 0.02 0.02 0.02 0.02 0.03 0.01 0.00 0.00 0.00 0.00 0.00 0.00 0.00 0.00 0.00 0.00 0.00 0.00 0.00 0.00 0.00 0.00 0.00 0.01 0.01 0.01
0.04 0.05 0.04 0.04 0.04 0.03 0.03 0.04 0.03 0.02 0.03 0.03 0.03 0.02 0.02 0.03 0.02 0.02 0.02 0.02 0.02 0.02 0.02 0.02 0.02 0.02 0.00 0.00 0.00 0.00 0.00 0.00 0.00 0.00 0.00 0.00 0.00 0.00 0.00 0.00 0.00 0.00 0.00 0.00 0.02 0.00 0.00
0.05 0.05 0.05 0.05 0.04 0.03 0.02 0.02 0.02 0.02 0.03 0.03 0.04 0.03 0.02 0.03 0.03 0.02 0.02 0.02 0.02 0.02 0.02 0.02 0.02 0.01 0.00 0.00 0.00 0.00 0.00 0.00 0.00 0.00 0.00 0.00 0.00 0.00 0.00 0.00 0.00 0.00 0.00 0.00 0.00 0.01 0.01
0.06 0.05 0.05 0.06 0.05 0.04 0.03 0.03 0.02 0.02 0.02 0.03 0.03 0.03 0.02 0.02 0.02 0.02 0.02 0.02 0.02 0.02 0.03 0.03 0.03 0.00 0.00 0.00 0.00 0.00 0.00 0.00 0.00 0.00 0.00 0.00 0.00 0.00 0.00 0.00 0.00 0.00 0.00 0.00 0.00 0.01 0.02
0.06 0.05 0.05 0.06 0.06 0.05 0.04 0.03 0.02 0.02 0.02 0.03 0.02 0.02 0.02 0.02 0.02 0.02 0.02 0.02 0.02 0.03 0.03 0.02 0.01 0.00 0.00 0.00 0.00 0.00 0.00 0.02 0.00 0.00 0.00 0.00 0.00 0.00 0.00 0.00 0.00 0.00 0.00 0.00 0.00 0.00 0.01
0.06 0.07 0.06 0.06 0.06 0.05 0.05 0.04 0.03 0.03 0.03 0.03 0.02 0.02 0.01 0.01 0.02 0.03 0.02 0.02 0.02 0.02 0.01 0.00 0.00 0.00 0.00 0.00 0.00 0.00 0.00 0.02 0.01 0.00 0.00 0.00 0.00 0.00 0.00 0.00 0.00 0.00 0.00 0.00 0.02 0.07 0.00
0.07 0.06 0.06 0.05 0.05 0.04 0.04 0.05 0.05 0.05 0.04 0.03 0.02 0.02 0.01 0.01 0.02 0.03 0.01 0.01 0.00 0.00 0.00 0.00 0.00 0.00 0.00 0.00 0.00 0.00 0.00 0.00 0.00 0.00 0.01 0.00 0.00 0.00 0.00 0.00 0.00 0.00 0.00 0.00 0.00 0.00 0.00
0.08 0.07 0.05 0.04 0.05 0.05 0.06 0.07 0.07 0.06 0.04 0.03 0.03 0.01 0.01 0.01 0.04 0.03 0.00 0.00 0.00 0.00 0.00 0.00 0.00 0.00 0.00 0.00 0.00 0.00 0.00 0.00 0.00 0.00 0.01 0.00 0.00 0.00 0.00 0.00 0.00 0.00 0.00 0.00 0.00 0.00 0.00
0.10 0.08 0.07 0.05 0.06 0.06 0.06 0.08 0.08 0.06 0.05 0.04 0.03 0.01 0.02 0.04 0.05 0.01 0.00 0.00 0.00 0.00 0.01 0.00 0.00 0.00 0.00 0.00 0.00 0.00 0.00 0.00 0.00 0.00 0.00 0.00 0.00 0.00 0.00 0.00 0.00 0.00 0.00 0.00 0.00 0.00 0.00
0.11 0.10 0.09 0.07 0.05 0.06 0.06 0.06 0.06 0.05 0.05 0.05 0.04 0.03 0.03 0.06 0.01 0.00 0.00 0.00 0.00 0.00 0.01 0.00 0.00 0.00 0.00 0.00 0.00 0.00 0.00 0.00 0.00 0.00 0.01 0.00 0.00 0.00 0.00 0.00 0.00 0.00 0.00 0.00 0.00 0.00 0.00
0.13 0.12 0.11 0.09 0.07 0.05 0.05 0.06 0.07 0.07 0.06 0.05 0.04 0.04 0.05 0.06 0.01 0.00 0.00 0.00 0.00 0.02 0.02 0.00 0.00 0.00 0.00 0.00 0.00 0.00 0.00 0.00 0.00 0.00 0.01 0.02 0.00 0.00 0.00 0.00 0.00 0.01 0.00 0.00 0.00 0.00 0.05
0.15 0.11 0.09 0.10 0.10 0.09 0.07 0.07 0.07 0.07 0.06 0.07 0.07 0.07 0.11 0.08 0.02 0.00 0.00 0.01 0.04 0.09 0.04 0.00 0.00 0.00 0.00 0.00 0.00 0.00 0.00 0.00 0.00 0.00 0.00 0.00 0.00 0.01 0.01 0.00 0.00 0.00 0.00 0.00 0.00 0.00 0.01
0.17 0.13 0.11 0.11 0.11 0.12 0.10 0.08 0.08 0.09 0.10 0.11 0.10 0.12 0.15 0.05 0.02 0.00 0.01 0.09 0.13 0.06 0.00 0.00 0.00 0.00 0.00 0.00 0.00 0.00 0.00 0.00 0.00 0.00 0.00 0.00 0.00 0.00 0.00 0.00 0.00 0.00 0.00 0.01 0.06 0.02 0.01
0.27 0.18 0.14 0.11 0.09 0.10 0.12 0.12 0.11 0.13 0.14 0.15 0.15 0.18 0.11 0.06 0.01 0.02 0.11 0.25 0.08 0.00 0.00 0.00 0.00 0.00 0.00 0.00 0.00 0.00 0.00 0.00 0.00 0.00 0.00 0.00 0.01 0.00 0.00 0.00 0.01 0.00 0.00 0.02 0.16 0.05 0.03
0.30 0.28 0.19 0.15 0.11 0.11 0.13 0.13 0.15 0.17 0.22 0.23 0.34 0.27 0.20 0.05 0.02 0.07 0.32 0.27 0.04 0.00 0.00 0.00 0.00 0.00 0.01 0.00 0.00 0.00 0.00 0.00 0.00 0.00 0.01 0.04 0.01 0.01 0.00 0.00 0.00 0.00 0.00 0.00 0.01 0.02 0.03
0.41 0.34 0.33 0.26 0.20 0.16 0.15 0.17 0.18 0.22 0.29 0.39 0.41 0.35 0.13 0.04 0.10 0.31 0.59 0.16 0.01 0.02 0.00 0.00 0.00 0.00 0.01 0.00 0.00 0.00 0.00 0.00 0.00 0.00 0.00 0.06 0.16 0.03 0.00 0.00 0.00 0.00 0.00 0.00 0.00 0.04 0.04
0.53 0.39 0.38 0.34 0.31 0.23 0.21 0.24 0.26 0.25 0.36 0.60 0.74 0.69 0.13 0.08 0.46 0.78 0.58 0.07 0.00 0.00 0.00 0.00 0.00 0.00 0.00 0.00 0.00 0.00 0.00 0.00 0.00 0.00 0.00 0.00 0.02 0.03 0.00 0.00 0.00 0.00 0.00 0.00 0.00 0.00 0.00
0.56 0.51 0.46 0.44 0.36 0.40 0.32 0.35 0.43 0.37 0.51 1.03 1.20 0.84 0.20 0.17 0.67 0.48 0.21 0.02 0.00 0.00 0.00 0.00 0.00 0.00 0.00 0.00 0.00 0.00 0.00 0.00 0.00 0.00 0.00 0.00 0.00 0.00 0.00 0.00 0.00 0.00 0.01 0.03 0.00 0.00 0.00
0.66 0.48 0.46 0.59 0.52 0.56 0.52 0.48 0.54 0.48 0.65 1.17 1.52 0.89 0.71 0.29 0.38 0.23 0.11 0.01 0.00 0.00 0.00 0.00 0.00 0.00 0.00 0.00 0.00 0.00 0.00 0.00 0.00 0.00 0.00 0.00 0.00 0.00 0.00 0.00 0.00 0.00 0.00 0.00 0.00 0.00 0.01
0.74 0.58 0.44 0.55 0.60 0.71 0.73 0.67 0.67 0.68 0.73 1.40 1.84 1.34 1.65 0.96 0.20 0.05 0.04 0.02 0.00 0.00 0.00 0.00 0.00 0.00 0.00 0.00 0.00 0.00 0.00 0.00 0.00 0.00 0.00 0.00 0.00 0.00 0.00 0.00 0.00 0.00 0.00 0.00 0.00 0.00 0.00
0.71 0.66 0.57 0.59 0.63 0.71 0.84 0.88 0.85 0.90 0.93 2.29 2.64 0.97 0.60 0.56 0.28 0.10 0.02 0.00 0.00 0.00 0.00 0.00 0.00 0.00 0.00 0.00 0.00 0.00 0.00 0.01 0.00 0.00 0.00 0.00 0.00 0.00 0.00 0.00 0.00 0.00 0.00 0.00 0.00 0.00 0.00
0.65 0.57 0.55 0.53 0.65 0.82 0.82 0.94 1.00 1.22 1.52 3.52 3.06 0.42 0.19 0.13 0.04 0.10 0.09 0.01 0.00 0.00 0.00 0.00 0.00 0.00 0.00 0.00 0.00 0.00 0.03 0.05 0.04 0.00 0.00 0.00 0.00 0.00 0.00 0.00 0.00 0.00 0.00 0.00 0.00 0.00 0.00
0.59 0.57 0.57 0.50 0.58 0.79 0.82 0.86 1.02 1.44 2.67 4.85 2.76 0.30 0.21 0.16 0.12 0.17 0.11 0.01 0.00 0.00 0.00 0.00 0.00 0.00 0.00 0.01 0.02 0.02 0.03 0.02 0.06 0.07 0.04 0.02 0.00 0.00 0.00 0.00 0.00 0.00 0.00 0.00 0.00 0.00 0.00
0.58 0.64 0.61 0.62 0.56 0.74 0.72 0.76 0.94 1.58 2.52 3.03 1.64 0.39 0.54 0.51 0.18 0.07 0.01 0.00 0.00 0.00 0.00 0.00 0.00 0.00 0.00 0.01 0.08 0.12 0.08 0.04 0.04 0.07 0.14 0.10 0.02 0.04 0.03 0.01 0.04 0.01 0.00 0.00 0.00 0.00 0.00
0.70 0.64 0.63 0.69 0.62 0.70 0.71 0.72 0.81 1.25 1.72 1.95 1.53 0.64 0.58 0.49 0.16 0.07 0.01 0.00 0.01 0.02 0.01 0.00 0.00 0.01 0.00 0.03 0.12 0.27 0.24 0.23 0.05 0.03 0.07 0.17 0.15 0.14 0.08 0.04 0.02 0.00 0.00 0.00 0.00 0.00 0.00
0.74 0.63 0.59 0.66 0.67 0.70 0.72 0.69 0.67 0.86 1.38 1.78 1.85 1.30 1.22 0.73 0.20 0.05 0.04 0.01 0.01 0.05 0.05 0.03 0.04 0.02 0.00 0.05 0.15 0.16 0.19 0.19 0.13 0.06 0.01 0.05 0.18 0.30 0.18 0.12 0.04 0.00 0.00 0.00 0.00 0.00 0.00
0.68 0.65 0.54 0.59 0.68 0.61 0.62 0.62 0.58 0.63 0.94 1.74 2.26 1.34 2.12 1.60 0.29 0.16 0.15 0.07 0.02 0.03 0.08 0.04 0.05 0.06 0.06 0.14 0.14 0.08 0.05 0.03 0.10 0.16 0.09 0.06 0.16 0.25 0.31 0.22 0.05 0.00 0.00 0.00 0.01 0.01 0.00
0.62 0.69 0.56 0.55 0.55 0.47 0.50 0.48 0.44 0.53 0.80 1.34 2.38 1.23 1.82 1.95 0.53 0.22 0.23 0.20 0.06 0.05 0.09 0.04 0.18 0.15 0.30 0.31 0.09 0.03 0.01 0.01 0.01 0.05 0.15 0.19 0.19 0.21 0.27 0.28 0.09 0.01 0.03 0.04 0.02 0.00 0.00
0.63 0.64 0.52 0.53 0.49 0.41 0.41 0.45 0.39 0.45 0.80 1.15 2.00 1.30 1.25 1.93 1.16 0.32 0.22 0.17 0.09 0.01 0.02 0.04 0.05 0.04 0.08 0.24 0.11 0.09 0.03 0.02 0.00 0.00 0.02 0.08 0.13 0.16 0.15 0.16 0.06 0.04 0.06 0.10 0.08 0.04 0.01

GFSGBSN_prec_precacc_069.txt.gz
Total_Precipitation_Accumulation
0.05 0.06 0.05 0.04 0.04 0.04 0.04 0.04 0.04 0.03 0.03 0.02 0.03 0.02 0.03 0.02 0.03 0.02 0.02 0.02 0.02 0.02 0.02 0.02 0.02 0.03 0.01 0.00 0.00 0.00 0.00 0.00 0.00 0.00 0.00 0.00 0.00 0.00 0.00 0.00 0.00 0.00 0.00 0.00 0.01 0.01 0.01
0.05 0.05 0.05 0.04 0.04 0.04 0.04 0.04 0.04 0.03 0.03 0.04 0.04 0.02 0.02 0.03 0.02 0.02 0.02 0.02 0.02 0.02 0.02 0.02 0.02 0.02 0.00 0.00 0.00 0.00 0.00 0.00 0.00 0.00 0.00 0.00 0.00 0.00 0.00 0.00 0.00 0.00 0.00 0.00 0.02 0.00 0.00
0.06 0.06 0.06 0.06 0.05 0.04 0.03 0.03 0.02 0.02 0.03 0.04 0.04 0.03 0.02 0.03 0.03 0.02 0.02 0.02 0.02 0.02 0.02 0.02 0.02 0.02 0.00 0.00 0.00 0.00 0.00 0.00 0.00 0.00 0.00 0.00 0.00 0.00 0.00 0.00 0.00 0.00 0.00 0.00 0.00 0.01 0.01
0.07 0.06 0.06 0.07 0.06 0.05 0.04 0.03 0.02 0.02 0.03 0.03 0.03 0.03 0.02 0.02 0.02 0.02 0.02 0.02 0.02 0.02 0.03 0.03 0.03 0.01 0.00 0.00 0.00 0.00 0.00 0.00 0.00 0.00 0.00 0.00 0.00 0.00 0.00 0.00 0.00 0.00 0.00 0.00 0.00 0.01 0.02
0.06 0.06 0.06 0.07 0.08 0.06 0.05 0.04 0.02 0.02 0.02 0.04 0.03 0.02 0.02 0.02 0.02 0.02 0.02 0.02 0.02 0.03 0.03 0.02 0.01 0.00 0.00 0.00 0.00 0.00 0.00 0.02 0.00 0.00 0.00 0.00 0.00 0.00 0.00 0.00 0.00 0.00 0.00 0.00 0.00 0.00 0.01
0.07 0.08 0.07 0.07 0.07 0.06 0.05 0.04 0.04 0.03 0.04 0.04 0.03 0.02 0.01 0.01 0.02 0.03 0.02 0.02 0.02 0.02 0.01 0.00 0.00 0.00 0.00 0.00 0.00 0.00 0.00 0.02 0.01 0.00 0.00 0.00 0.00 0.00 0.00 0.00 0.00 0.00 0.00 0.00 0.02 0.07 0.00
0.08 0.08 0.07 0.06 0.06 0.05 0.05 0.05 0.06 0.05 0.04 0.03 0.03 0.02 0.01 0.01 0.02 0.03 0.01 0.01 0.00 0.00 0.00 0.00 0.00 0.00 0.00 0.00 0.00 0.00 0.00 0.00 0.00 0.00 0.02 0.00 0.00 0.00 0.00 0.00 0.00 0.00 0.00 0.00 0.00 0.00 0.00
0.09 0.08 0.07 0.06 0.07 0.06 0.06 0.07 0.08 0.07 0.05 0.04 0.03 0.02 0.01 0.01 0.04 0.03 0.00 0.00 0.00 0.00 0.01 0.00 0.00 0.00 0.00 0.00 0.00 0.00 0.00 0.03 0.02 0.03 0.01 0.00 0.00 0.00 0.00 0.00 0.00 0.00 0.00 0.00 0.00 0.00 0.00
0.11 0.10 0.09 0.06 0.07 0.07 0.06 0.08 0.08 0.06 0.05 0.05 0.04 0.02 0.02 0.04 0.05 0.01 0.00 0.00 0.00 0.00 0.01 0.00 0.00 0.00 0.00 0.00 0.00 0.00 0.00 0.01 0.03 0.02 0.02 0.00 0.00 0.00 0.00 0.00 0.00 0.00 0.00 0.00 0.00 0.00 0.00
0.12 0.11 0.09 0.08 0.07 0.07 0.07 0.06 0.06 0.06 0.07 0.06 0.04 0.03 0.03 0.06 0.01 0.00 0.00 0.00 0.00 0.00 0.01 0.00 0.00 0.00 0.00 0.00 0.00 0.00 0.00 0.00 0.01 0.01 0.02 0.01 0.00 0.00 0.00 0.00 0.00 0.00 0.00 0.00 0.00 0.00 0.00
0.15 0.14 0.13 0.12 0.10 0.08 0.07 0.07 0.08 0.08 0.08 0.07 0.05 0.04 0.06 0.07 0.02 0.01 0.00 0.00 0.00 0.03 0.02 0.00 0.00 0.00 0.00 0.00 0.00 0.00 0.00 0.00 0.01 0.02 0.05 0.06 0.00 0.00 0.00 0.00 0.00 0.01 0.00 0.00 0.00 0.00 0.05
0.17 0.13 0.11 0.12 0.11 0.10 0.08 0.09 0.09 0.08 0.08 0.07 0.07 0.07 0.11 0.08 0.04 0.01 0.00 0.01 0.04 0.09 0.04 0.00 0.00 0.00 0.00 0.00 0.00 0.00 0.00 0.00 0.02 0.14 0.04 0.01 0.00 0.01 0.01 0.00 0.00 0.00 0.00 0.00 0.00 0.00 0.01
0.19 0.14 0.11 0.12 0.12 0.14 0.13 0.11 0.10 0.10 0.10 0.11 0.11 0.13 0.16 0.06 0.03 0.00 0.01 0.09 0.13 0.06 0.00 0.00 0.00 0.00 0.00 0.00 0.00 0.00 0.00 0.00 0.02 0.09 0.06 0.01 0.01 0.00 0.00 0.00 0.00 0.00 0.00 0.01 0.06 0.02 0.01
0.29 0.21 0.18 0.15 0.14 0.15 0.17 0.16 0.13 0.14 0.15 0.16 0.15 0.19 0.12 0.06 0.03 0.04 0.13 0.26 0.08 0.00 0.00 0.00 0.00 0.00 0.00 0.00 0.00 0.00 0.00 0.00 0.00 0.00 0.02 0.07 0.06 0.00 0.00 0.00 0.01 0.00 0.00 0.02 0.16 0.05 0.03
0.33 0.31 0.23 0.18 0.15 0.15 0.16 0.16 0.17 0.19 0.23 0.23 0.35 0.27 0.21 0.05 0.04 0.14 0.40 0.30 0.04 0.00 0.00 0.00 0.00 0.00 0.01 0.00 0.00 0.00 0.00 0.00 0.00 0.00 0.03 0.05 0.02 0.02 0.00 0.00 0.00 0.00 0.00 0.00 0.01 0.02 0.03
0.46 0.39 0.38 0.30 0.23 0.19 0.19 0.20 0.21 0.24 0.30 0.41 0.44 0.37 0.14 0.04 0.15 0.45 0.74 0.22 0.01 0.02 0.00 0.00 0.00 0.00 0.01 0.00 0.00 0.02 0.02 0.01 0.00 0.00 0.00 0.07 0.16 0.04 0.00 0.00 0.00 0.00 0.00 0.00 0.00 0.04 0.04
0.58 0.44 0.42 0.39 0.37 0.30 0.27 0.30 0.30 0.27 0.37 0.63 0.79 0.73 0.14 0.09 0.55 0.93 0.70 0.11 0.00 0.00 0.00 0.00 0.00 0.00 0.00 0.00 0.00 0.02 0.08 0.05 0.00 0.00 0.00 0.00 0.02 0.04 0.00 0.00 0.00 0.00 0.00 0.00 0.00 0.00 0.00
0.58 0.53 0.49 0.47 0.39 0.42 0.36 0.41 0.48 0.40 0.54 1.08 1.25 0.89 0.24 0.27 0.77 0.54 0.26 0.05 0.00 0.00 0.00 0.00 0.00 0.00 0.00 0.00 0.00 0.01 0.04 0.03 0.03 0.00 0.00 0.00 0.00 0.00 0.00 0.00 0.00 0.00 0.01 0.03 0.00 0.00 0.00
0.72 0.54 0.53 0.64 0.58 0.61 0.57 0.54 0.59 0.51 0.72 1.25 1.58 0.92 0.75 0.49 0.47 0.26 0.14 0.03 0.01 0.00 0.00 0.00 0.00 0.00 0.00 0.00 0.01 0.00 0.03 0.03 0.01 0.01 0.00 0.02 0.01 0.00 0.02 0.01 0.00 0.00 0.00 0.00 0.00 0.00 0.01
0.82 0.65 0.49 0.59 0.64 0.77 0.79 0.73 0.73 0.70 0.80 1.52 1.96 1.42 1.71 1.08 0.25 0.10 0.12 0.07 0.02 0.00 0.00 0.00 0.00 0.01 0.01 0.01 0.00 0.00 0.01 0.02 0.01 0.01 0.00 0.02 0.03 0.00 0.01 0.00 0.00 0.00 0.00 0.00 0.00 0.00 0.00
0.74 0.70 0.61 0.62 0.67 0.75 0.90 0.95 0.92 0.94 1.03 2.43 2.79 1.08 0.65 0.63 0.31 0.12 0.10 0.07 0.03 0.02 0.01 0.01 0.01 0.00 0.01 0.01 0.01 0.00 0.00 0.01 0.01 0.01 0.01 0.00 0.06 0.04 0.00 0.00 0.00 0.00 0.00 0.00 0.00 0.00 0.00
0.68 0.60 0.60 0.57 0.69 0.87 0.86 0.98 1.05 1.26 1.65 3.68 3.18 0.49 0.27 0.16 0.12 0.18 0.14 0.10 0.03 0.03 0.05 0.03 0.01 0.00 0.01 0.01 0.01 0.00 0.03 0.05 0.05 0.01 0.01 0.00 0.06 0.08 0.01 0.00 0.00 0.00 0.00 0.00 0.00 0.00 0.00
0.60 0.58 0.59 0.51 0.60 0.81 0.85 0.91 1.06 1.47 2.81 5.00 2.86 0.35 0.34 0.23 0.15 0.31 0.23 0.05 0.05 0.04 0.05 0.02 0.01 0.02 0.04 0.05 0.04 0.02 0.03 0.02 0.06 0.07 0.04 0.02 0.03 0.05 0.04 0.00 0.00 0.01 0.00 0.00 0.00 0.00 0.00
0.61 0.67 0.63 0.64 0.58 0.75 0.73 0.76 0.96 1.61 2.61 3.14 1.73 0.46 0.63 0.56 0.22 0.11 0.05 0.08 0.10 0.06 0.06 0.03 0.01 0.03 0.04 0.02 0.08 0.12 0.08 0.04 0.04 0.07 0.14 0.10 0.04 0.07 0.10 0.02 0.06 0.02 0.00 0.00 0.00 0.00 0.00
0.78 0.73 0.71 0.75 0.67 0.74 0.74 0.73 0.82 1.26 1.77 2.08 1.63 0.78 0.69 0.52 0.17 0.08 0.03 0.04 0.08 0.16 0.07 0.05 0.06 0.06 0.04 0.05 0.15 0.30 0.25 0.24 0.05 0.03 0.07 0.17 0.15 0.16 0.10 0.07 0.05 0.00 0.00 0.00 0.01 0.00 0.00
0.90 0.81 0.78 0.82 0.78 0.79 0.79 0.72 0.70 0.88 1.42 1.92 2.02 1.39 1.37 0.89 0.23 0.05 0.06 0.03 0.07 0.12 0.11 0.10 0.14 0.10 0.12 0.13 0.20 0.21 0.23 0.20 0.14 0.07 0.01 0.05 0.18 0.31 0.20 0.13 0.05 0.00 0.00 0.00 0.00 0.01 0.00
0.72 0.70 0.60 0.67 0.78 0.73 0.73 0.72 0.66 0.69 1.01 1.89 2.46 1.43 2.20 1.77 0.33 0.19 0.17 0.09 0.05 0.10 0.16 0.10 0.11 0.16 0.17 0.23 0.20 0.13 0.10 0.04 0.11 0.19 0.10 0.06 0.16 0.25 0.32 0.24 0.05 0.00 0.00 0.00 0.02 0.03 0.00
0.66 0.73 0.60 0.60 0.59 0.52 0.60 0.60 0.56 0.64 0.91 1.52 2.59 1.30 1.89 2.07 0.56 0.25 0.26 0.22 0.08 0.11 0.22 0.14 0.29 0.28 0.41 0.39 0.15 0.07 0.05 0.02 0.02 0.08 0.16 0.20 0.19 0.22 0.28 0.30 0.11 0.01 0.04 0.06 0.02 0.00 0.00
0.64 0.66 0.54 0.57 0.55 0.49 0.47 0.50 0.50 0.60 0.95 1.35 2.27 1.41 1.29 2.02 1.22 0.35 0.23 0.20 0.12 0.05 0.10 0.16 0.14 0.12 0.13 0.30 0.15 0.13 0.05 0.04 0.01 0.02 0.03 0.11 0.15 0.19 0.16 0.17 0.09 0.05 0.07 0.10 0.08 0.04 0.01